Location: Rio Negrinho
(26.2394°S, 49.4999°W)
Time: 17:44:41
(UTC+00:00)

Hubble Space Telescope - Pass Details

Date: 01 August 2021
Orbit: 535 x 539 km, 28.5° (Epoch: 22 September)

Event Time Altitude Azimuth Distance (km) Brightness Sun altitude
Exits shadow 07:15:01 11° 101° (E) 1,703 4.0 -36.3°
Drops below altitude 10° 07:15:19 10° 101° (E) 1,817 4.2 -36.3°
Sets 07:17:32 0° 102° (ESE) 2,687 5.3 -35.8°
